{"data":{"norad_id":65703,"epoch":"2026-09-20T23:17:09.228480Z","epoch_age_seconds":68035,"freshness":"FRESH","line1":"1 65703U 25212AD  26263.97024570  .00013773  00000+0  45450-3 0  9997","line2":"2 65703  53.1612 157.0728 0001214  65.8777 294.2352 15.31720330 57160","mean_motion":15.3172033,"eccentricity":0.0001214,"inclination_deg":53.1612,"raan_deg":157.0728,"arg_perigee_deg":65.8777,"mean_anomaly_deg":294.2352,"bstar":0.0004545,"rev_number":5716,"period_min":94.011940156203,"perigee_km":469.8479469137,"apogee_km":471.51083953397,"semimajor_km":6848.8163932238,"source":"CELESTRAK","updated_at":"2026-09-21T09:00:35.690834Z"}}